Weather History for PAKN - January, 2013

Change the Weather History Date:

Tuesday, January 8, 2013

  Actual Average Record
Temperature  
Mean Temperature 12 °F 16 °F  
Max Temperature 19 °F 24 °F 48 °F (2015)
Min Temperature 5 °F - -37 °F (2007)
Degree Days  
Heating Degree Days 53 49  
Month to date heating degree days 287 388  
Since 1 July heating degree days 5757 5201  
Cooling Degree Days 0    
Month to date cooling degree days 0  
Year to date cooling degree days 0  
Moisture  
Dew Point 12 °F    
Average Humidity 0    
Maximum Humidity 0    
Minimum Humidity 0    
Precipitation  
Precipitation 0.03 in 0.03 in 1.05 in (1987)
Month to date precipitation 0.44 0.25  
Year to date precipitation 0.44 0.25  
Snow  
Snow 0.20 in 0.30 in 12.00 in (1987)
Month to date snowfall 3.1 2.3  
Since 1 July snowfall 24.6 21.6  
Snow Depth 1.00 in    
Sea Level Pressure  
Sea Level Pressure 29.94 in    
Wind  
Wind Speed 3 mph (SSE)    
Max Wind Speed 7 mph    
Max Gust Speed 8 mph    
Visibility 9 miles    
Events Snow    
T = Trace of Precipitation, MM = Missing Value Source: NWS Daily Summary

Daily Weather History Graph

Daily Weather History Graph

Search for Another Location

Airport or City:

Trip Planner

Search our weather history database for the weather conditions in past years. The results will help you decide how hot, cold, wet, or windy it might be!

Date:

Astronomy

Jan. 08, 2013 Rise Set
Actual Time 10:12 AM AKST 4:55 PM AKST
Civil Twilight 9:20 AM AKST 5:46 PM AKST
Nautical Twilight 8:28 AM AKST 6:39 PM AKST
Astronomical Twilight 7:39 AM AKST 7:27 PM AKST
Moon 6:55 AM AKST (1/8) 2:09 PM AKST (1/8)
Length of Visible Light 8h 25m
Length of Day
6h 43m
Waning Crescent, 12% of the Moon is Illuminated
Jan 8
Waning Crescent
Jan 11
New
Jan 18
First Quarter
Jan 26
Full
Feb 3
Last Quarter

Hourly Weather History & Observations

Time (AKST) Temp. Windchill Dew Point Humidity Pressure Visibility Wind Dir Wind Speed Gust Speed Precip Events Conditions
12:28 AM 17.6 °F - 15.8 °F 93% 29.64 in 10.0 mi Calm Calm - N/A   Overcast
12:54 AM 19.0 °F - 16.0 °F 88% 29.67 in 10.0 mi Calm Calm - N/A   Mostly Cloudy
1:54 AM 18.0 °F 12.7 °F 16.0 °F 92% 29.70 in 10.0 mi SSE 3.5 mph - 0.02 in   Mostly Cloudy
3:54 AM 19.0 °F 11.1 °F 17.1 °F 92% 29.75 in 9.0 mi SSE 5.8 mph - 0.01 in   Overcast
4:50 AM 17.6 °F 12.3 °F 15.8 °F 93% 29.77 in 10.0 mi SE 3.5 mph - N/A   Overcast
4:54 AM 17.1 °F 10.0 °F 15.1 °F 92% 29.78 in 10.0 mi SE 4.6 mph - N/A   Mostly Cloudy
5:20 AM 17.6 °F 12.3 °F 15.8 °F 93% 29.80 in 10.0 mi SE 3.5 mph - 0.01 in   Mostly Cloudy
5:54 AM 18.0 °F - 16.0 °F 92% 29.82 in 7.0 mi Calm Calm - 0.00 in Snow Light Snow
6:54 AM 18.0 °F 12.7 °F 16.0 °F 92% 29.84 in 7.0 mi SSE 3.5 mph - 0.00 in Snow Light Snow
7:54 AM 16.0 °F 10.4 °F 14.0 °F 92% 29.87 in 10.0 mi SSE 3.5 mph - 0.01 in   Overcast
8:54 AM 14.0 °F 6.5 °F 12.9 °F 95% 29.90 in 10.0 mi SSE 4.6 mph - N/A   Scattered Clouds
9:54 AM 12.9 °F 6.9 °F 10.9 °F 92% 29.93 in 10.0 mi South 3.5 mph - N/A   Scattered Clouds
10:54 AM 12.0 °F 4.1 °F 9.0 °F 88% 29.96 in 10.0 mi SE 4.6 mph - N/A   Partly Cloudy
11:54 AM 14.0 °F - 10.9 °F 88% 29.98 in 10.0 mi Calm Calm - N/A   Partly Cloudy
12:54 PM 16.0 °F - 12.9 °F 88% 30.00 in 10.0 mi Calm Calm - N/A   Partly Cloudy
1:54 PM 18.0 °F - 15.1 °F 88% 30.01 in 10.0 mi Calm Calm - N/A   Partly Cloudy
2:54 PM 18.0 °F 9.8 °F 14.0 °F 84% 30.04 in 10.0 mi SSE 5.8 mph - N/A   Clear
3:54 PM 19.0 °F 13.9 °F 15.1 °F 85% 30.04 in 10.0 mi ESE 3.5 mph - N/A   Partly Cloudy
4:54 PM 12.9 °F 3.8 °F 10.9 °F 92% 30.06 in 10.0 mi SE 5.8 mph - N/A   Scattered Clouds
5:54 PM 12.0 °F - 10.9 °F 95% 30.07 in 10.0 mi Calm Calm - 0.05 in   Scattered Clouds
6:16 PM 12.2 °F 6.1 °F 8.6 °F 85% 30.07 in 10.0 mi ESE 3.5 mph - 0.01 in   Scattered Clouds
6:54 PM 10.9 °F 2.9 °F 8.1 °F 88% 30.08 in 10.0 mi SE 4.6 mph - N/A   Scattered Clouds
7:54 PM 10.0 °F 1.8 °F 8.1 °F 92% 30.08 in 10.0 mi SSE 4.6 mph - N/A   Scattered Clouds
8:35 PM 8.6 °F 0.1 °F 8.6 °F 100% 30.09 in 1.5 mi South 4.6 mph - N/A   Partly Cloudy
8:54 PM 10.0 °F 1.8 °F 8.1 °F 92% 30.09 in 1.5 mi SE 4.6 mph - N/A   Scattered Clouds
9:02 PM 10.4 °F 4.0 °F 8.6 °F 92% 30.09 in 5.0 mi SSE 3.5 mph - N/A   Scattered Clouds
9:54 PM 9.0 °F - 7.0 °F 92% 30.09 in 10.0 mi Calm Calm - N/A   Scattered Clouds
10:54 PM 8.1 °F - 6.1 °F 92% 30.10 in 10.0 mi Calm Calm - N/A   Partly Cloudy
11:54 PM 5.0 °F - 1.9 °F 87% 30.09 in 10.0 mi Calm Calm - N/A   Clear